Hourly Data Report for September 11, 2017

All times are specified in Local Standard Time (LST). Add 1 hour to adjust for Daylight Saving Time where and when it is observed.

ALERT CLIMATE
NUNAVUT

82°30'00.000" N
62°20'00.000" W
65.40 m
2400305
71355
ZLT

Download Data

Hourly Data (September 2017)
Hourly Data Report for September 11, 2017
Temp Definition
°C
Dew Point Temp Definition
°C
Rel Hum Definition
%
Wind Dir Definition
10's deg

Wind Spd Definition
km/h
Visibility Definition
km
Stn Press Definition
kPa
Hmdx Definition


Wind Chill Definition


Weather Definition


TIME
00:00 -14.0 -15.9 86 24 10   99.23   -20 LegendNANA
01:00 -13.8 -14.9 91 28 13   99.24   -21 LegendNANA
02:00 -12.4 -13.6 91 29 17   99.24   -20 LegendNANA
03:00 -13.2 -14.2 92 4 6   99.32   -17 LegendNANA
04:00 -13.0 -14.0 92 15 4   99.39   -16 LegendNANA
05:00 -13.1 -14.2 91 29 2   99.42   -14 LegendNANA
06:00 -13.1 -14.2 91 29 6   99.43   -17 LegendNANA
07:00 -12.3 -13.6 90 29 9   99.45   -18 LegendNANA
08:00 -12.7 -14.3 88 8 4   99.51   -15 LegendNANA
09:00 -11.9 -13.9 85 9 5   99.56   -15 LegendNANA
10:00 -11.5 -13.6 85 13 3   99.60   -13 LegendNANA
11:00 -11.5 -13.6 84 6 3   99.64   -13 LegendNANA
12:00 -11.5 -13.2 87 29 9   99.66   -17 LegendNANA
13:00 -10.3 -12.2 86 29 15   99.66   -17 LegendNANA
14:00 -10.4 -11.7 90 6 9   99.71   -15 LegendNANA
15:00 -10.6 -11.7 91 9 7   99.79   -15 LegendNANA
16:00 -9.8 -12.0 84 9 5   99.86   -13 LegendNANA
17:00 -10.7 -12.2 89 7 6   99.92   -14 LegendNANA
18:00 -10.8 -11.9 92 7 6   99.98   -14 LegendNANA
19:00 -10.6 -11.6 92   0   100.02     LegendNANA
20:00 -10.9 -11.9 92 8 7   100.07   -15 LegendNANA
21:00 -10.6 -11.6 92 8 8   100.10   -15 LegendNANA
22:00 -10.5 -11.4 94 9 5   100.16   -14 LegendNANA
23:00 -10.8 -11.6 94 7 5   100.18   -14 LegendNANA

Notes on Data Quality.

Legend

  • E = Estimated
  • M = Missing
  • NA = Not Available
  • ‡ = Partner data that is not subject to review by the National Climate Archives
Date modified: